Welcome to the New NWS' Forecast!
Most changes are behind the scenes, but click here for differences you might notice.

Regional Weather Roundup (RWR)

Issued by Gray - Portland, ME (GYX)

                            
000
ASUS41 KGYX 150305
RWRGYX
WEATHER ROUNDUP FOR MAINE AND NEW HAMPSHIRE
NATIONAL WEATHER SERVICE GRAY ME
1100 PM EDT TUE AUG 14 2018

MEZ002-005-006-010-012-015-018-020-021-024-026-027-029-150400-
MAINE
  
CITY           SKY/WX    TMP DP  RH WIND       PRES   REMARKS
PORTLAND       CLOUDY    69  69 100 CALM      29.85S FOG              
SANFORD        CLOUDY    69  69 100 CALM      29.85S FOG              
BAR HARBOR     CLOUDY    68  67  96 S3        29.87F                  
WISCASSET      CLOUDY    69  69 100 CALM      29.87S FOG              
ROCKLAND       LGT RAIN  66  66 100 CALM      29.87S VSB 3/4          
FRYEBURG       LGT RAIN  69  69 100 CALM      29.86F                  
LEWISTONAUBURN LGT RAIN  69  69 100 CALM      29.85F                  
AUGUSTA        CLOUDY    69  68  96 VRB5      29.86F                  
WATERVILLE     CLOUDY    69  69 100 VRB6      29.84F                  
BANGOR           N/A     70  68  93 S8        29.87S FOG              
GREENVILLE       N/A     68  67  96 CALM      29.86S                  
MILLINOCKET    CLOUDY    72  68  87 VRB3      29.86R                  
HOULTON        FAIR      72  71  97 S6        29.82S                  
PRESQUE ISLE   CLOUDY    72  69  90 S5        29.82S                  
FRENCHVILLE    FAIR      73  67  81 S6        29.80S                  
CARIBOU        CLOUDY    73  68  84 S7        29.81S                  
$$

NHZ002-005-008-009-011-012-014-150400-
NEW HAMPSHIRE
  
CITY           SKY/WX    TMP DP  RH WIND       PRES   REMARKS
PORTSMOUTH     CLOUDY    69  69  97 CALM      29.82S                  
ROCHESTER      CLOUDY    70  70 100 CALM      29.84S FOG              
MANCHESTER     NOT AVBL                                               
CONCORD        CLOUDY    71  69  93 CALM      29.85S                  
LACONIA        FAIR      67  67 100 CALM      29.86F                  
PLYMOUTH       CLOUDY    66  64  94 CALM      29.86R FOG              
BERLIN         CLOUDY    67  66  97 CALM      29.86F                  
WHITEFIELD     FAIR      66  64  93 CALM      29.86S                  
JAFFREY        NOT AVBL                                               
LEBANON        FAIR      67  64  90 CALM      29.84R                  
MT WASHINGTON  NOT AVBL                                               
$$

VTZ005-007-008-150400-
VERMONT
  
CITY           SKY/WX    TMP DP  RH WIND       PRES   REMARKS
ST JOHNSBURY     N/A     70  68  93 MISG      29.82S                  
MONTPELIER     FAIR      67  67 100 S5        29.88F                  
BURLINGTON     FAIR      73  66  78 S6        29.80S                  
$$

MAZ007-012-024-CTZ003-RIZ002-NYZ038-NYZ072-150400-
SOUTHERN NEW ENGLAND AND NY
  
CITY           SKY/WX    TMP DP  RH WIND       PRES   REMARKS
BOSTON         FAIR      73  68  84 S7        29.84S                  
WORCESTER      FAIR      68  67  96 SW8       29.87S                  
NANTUCKET      FAIR      72  70  93 S9        29.88F                  
PROVIDENCE     MOCLDY    73  71  93 S3        29.85S                  
HARTFORD       FAIR      72  69  90 SW5       29.83R                  
ALBANY         MOCLDY    72  66  81 CALM      29.81F                  
NEW YORK CITY  MOCLDY    75  66  73 SW10      29.84S                  
$$

ANZ081-ANZ082-ANZ150-NHZ014-MEZ023>029-150400-
COASTAL MARINE OBSERVATIONS
  
STATION/POSITION TIME  TEMP    WIND        PRES    WAVE
                       AIR SEA DIR/SP/G            HT/PER
                 (UTC) (F)     (DEG/KT/KT) (MB)    (FT/S)
MOUNT DESERT ROC 0300   66     150/ 13/ 14 1011.5F
MATINICUS ROCK   0200   68     160/ 16/ 17 1010.8F
ISLE OF SHOALS   0200   70     240/  5/  5 1009.6R
JEFFREYS LEDGE   0236      68                N/A     2/ 7
$$

.............KEY..............
   WCI - WIND CHILL
   TC  - TEMPERATURE IN CELSIUS
   VSB - VISIBILITY IN MILES
   HX  - HEAT INDEX
   FAIR- INDICATES FEW OR NO CLOUDS BELOW 12,000 FT, WITH NO 
         SIGNIFICANT WEATHER AND/OR OBSTRUCTIONS TO VISIBILITY.